Lexington Weather

Lexington, Massachusetts, USA

34°F
4/16/2021 9:57am 
  • Lexington Conditions: Snow, Mist, Overcast
  • Temperature: 33.8°F / 1.0°CColder 1.6°F than last hour.
  • Dew Point: 32.5°FDecreased 1.7°Fsince last hour.
  • Relative Humidity: 95
  • Wind: Calm, 10-min avg: Calm, gust: None
  • Barometer: 29.50 in Steady
  • Visibility: ½ mile
  • Snow Today: 0.3 in
  •   

Regional Weather Roundup
for Boston / Norton, MA

        
000
ASUS41 KBOX 120804
RWRBOX

REGIONAL WEATHER ROUNDUP
NATIONAL WEATHER SERVICE BOSTON/NORTON MA
400 AM EDT MON APR 12 2021

NOTE:  "FAIR" INDICATES FEW OR NO CLOUDS BELOW 12,000 FEET WITH NO 
SIGNIFICANT WEATHER AND/OR OBSTRUCTIONS TO VISIBILITY.

MAZALL-120900-
EASTERN MASSACHUSETTS
  
CITY           SKY/WX    TMP DP  RH WIND       PRES   REMARKS
BOSTON         CLOUDY    45  39  79 N9        29.77S                  
BEVERLY        NOT AVBL                                               
LAWRENCE       MOCLDY    43  39  86 N7        29.79S                  
BEDFORD        CLOUDY    43  40  89 NE3       29.76S                  
BLUE HILL        N/A     41  39  93 NE12      29.73S                  
NORWOOD        CLOUDY    46  39  76 NE6       29.75F                  
MARSHFIELD     CLOUDY    45  43  93 VRB7G14   29.76S                  
PLYMOUTH       CLOUDY    44  40  85 NE14      29.73F                  
TAUNTON        CLOUDY    44  38  79 VRB6      29.73F                  
NEW BEDFORD    CLOUDY    45  37  73 NE6       29.73R                  
$$

MAZALL-120900-
CAPE COD AND THE ISLANDS
  
CITY           SKY/WX    TMP DP  RH WIND       PRES   REMARKS
FALMOUTH       NOT AVBL                                               
HYANNIS        CLOUDY    46  38  73 N10       29.71S                  
CHATHAM        CLOUDY    45  37  73 N7        29.74S                  
PROVINCETOWN   CLOUDY    44  42  93 MISG        N/A                   
NANTUCKET      CLOUDY    45  36  70 NE14      29.71R                  
MARTHAS VNYRD  CLOUDY    46  35  65 NE13      29.72R                  
$$
 
MAZALL-120900-
CENTRAL AND WESTERN MASSACHUSETTS
  
CITY           SKY/WX    TMP DP  RH WIND       PRES   REMARKS
WORCESTER      CLOUDY    43  35  73 NE7       29.74R                  
FITCHBURG      CLOUDY    44  40  85 VRB3      29.78R                  
ORANGE         CLOUDY    46  34  62 N5        29.77R                  
SPRINGFIELD    CLOUDY    46  37  70 NE6       29.74S                  
WESTFIELD      CLOUDY    46  38  73 N6        29.74F                  
NORTH ADAMS    CLOUDY    50  31  48 E13G18    29.73R                  
PITTSFIELD     CLOUDY    45  30  55 E5        29.71S                  
$$
 
RIZALL-120900-
RHODE ISLAND
  
CITY           SKY/WX    TMP DP  RH WIND       PRES   REMARKS
PROVIDENCE     CLOUDY    45  36  70 NE8       29.75R                  
NEWPORT        CLOUDY    44  35  70 NE7       29.73R                  
BLOCK ISLAND   CLOUDY    43  39  86 NE13G20   29.71R                  
SMITHFIELD     CLOUDY    43  39  86 NE13      29.74R                  
WESTERLY       CLOUDY    43  37  79 NE6       29.71R                  
$$
 
CTZALL-120900-
CONNECTICUT
  
CITY           SKY/WX    TMP DP  RH WIND       PRES   REMARKS
BRADLEY INTL   CLOUDY    47  38  71 N9        29.74S                  
HARTFORD       LGT RAIN  48  39  71 N8        29.73S                  
BRIDGEPORT     LGT RAIN  48  40  73 NE12      29.70S                  
DANBURY        RAIN      47  41  80 NE5       29.72R                  
GROTON         CLOUDY    46  36  68 NE13      29.70S                  
NEW HAVEN      CLOUDY    48  42  80 NE7       29.70S                  
CHESTER        MOCLDY    46  36  66 NE7       29.71R                  
MERIDEN        CLOUDY    47  37  68 N5        29.72S                  
WILLIMANTIC    CLOUDY    45  37  73 NE5       29.73S                  
OXFORD         RAIN      44  42  93 NE13      29.71R                  
$$

MEZ002-015-021-024-NHZ003-005-008-011-012-014-VTZ005-008-120900-
NORTHERN NEW ENGLAND
  
CITY           SKY/WX    TMP DP  RH WIND       PRES   REMARKS
PORTLAND ME    MOCLDY    45  39  79 NE12      29.81S                  
BANGOR ME      CLOUDY    49  43  80 NE13      29.83R                  
CONCORD NH     MOCLDY    41  36  82 CALM      29.79S                  
MANCHESTER NH  CLOUDY    45  37  73 NE5       29.77S                  
NASHUA NH      MOCLDY    44  42  93 NW3       29.78S                  
PORTSMOUTH NH  CLOUDY    41  35  79 N7        29.79F                  
JAFFREY NH     CLOUDY    42  37  82 CALM      29.76S                  
KEENE NH       LGT RAIN  45  37  73 CALM      29.77S                  
BURLINGTON VT  MOCLDY    50  37  61 SE3       29.76R                  
MT. WASHINGTON FRZ RAIN  27  27 100 E38         N/A  VSB 0   WCI   9  
$$

NYZ052-076-120900-
EASTERN NEW YORK
  
CITY           SKY/WX    TMP DP  RH WIND       PRES   REMARKS
ALBANY         CLOUDY    47  37  68 CALM      29.74R                  
NEW YORK CITY  CLOUDY    46  43  89 NE8       29.72R FOG              
$$
 
ANZALL-120900-
MARINE OBSERVATIONS
  
STATION/POSITION TIME  TEMP    WIND        PRES    VSBY  WAVE
                       AIR SEA DIR/SP/G                  HT/PER
                 (UTC) (F)     (DEG/KT/KT) (MB)    (MI)  (FT/S)
BOSTON BUOY      0740   43 44   20/ 14/ 16 1008.6R
BUZZARDS BAY     0700           40/ 20/ 20 1006.4F
NANTUCKET SOUND  0740      47                N/A
MASS BAY-STELLWA 0704   44      20/ 14/ 16 1006.7F  1 7/8  4/ 6
ISLE OF SHOALS   0700   43      20/ 11/ 13 1008.3F
S OF BLOCK IS    0726      45                N/A           5/ 6
$$

......................KEY.........................
  SKY/WX - SKY CONDITION/PRESENT WEATHER
  TMP    - TEMPERATURE IN FAHRENHEIT
  DWPT   - DEWPOINT IN FAHRENHEIT
  RH     - RELATIVE HUMIDITY IN PERCENT
  WIND   - DIRECTION AND SPEED IN MPH
  PRES   - MEAN SEA LEVEL PRESSURE IN INCHES OF HG
  WCI    - WIND CHILL INDEX
  VSB    - VISIBILITY IN MILES
  HX     - HEAT INDEX
  TC     - TEMPERATURE IN CELSIUS
  VRB    - VARIABLE WIND DIRECTION
  N/A    - NOT AVAILABLE
  
      

Other recent Regional Weather Roundups

Fri Apr 16, 9:04am

Fri Apr 16, 8:04am

Fri Apr 16, 7:04am

Fri Apr 16, 6:04am

Fri Apr 16, 5:04am

Fri Apr 16, 4:04am

Fri Apr 16, 3:04am

Fri Apr 16, 2:04am

Fri Apr 16, 1:04am

Fri Apr 16, 12:04am

Thu Apr 15, 11:05pm

Thu Apr 15, 10:04pm

Thu Apr 15, 9:04pm

Thu Apr 15, 8:04pm

Thu Apr 15, 7:05pm

Thu Apr 15, 6:04pm

Thu Apr 15, 5:05pm

Thu Apr 15, 4:04pm

Thu Apr 15, 3:05pm

Thu Apr 15, 2:04pm

Thu Apr 15, 1:05pm

Thu Apr 15, 12:04pm

Thu Apr 15, 11:04am

Thu Apr 15, 10:05am

Thu Apr 15, 9:04am

Thu Apr 15, 8:04am

Thu Apr 15, 7:04am

Thu Apr 15, 6:04am

Thu Apr 15, 5:04am

Thu Apr 15, 4:04am

Thu Apr 15, 3:04am

Thu Apr 15, 2:04am

Thu Apr 15, 1:04am

Thu Apr 15, 12:04am

Wed Apr 14, 11:04pm

Wed Apr 14, 10:04pm

Wed Apr 14, 9:04pm

Wed Apr 14, 8:04pm

Wed Apr 14, 7:04pm

Wed Apr 14, 6:04pm

Wed Apr 14, 5:05pm

Wed Apr 14, 4:04pm

Wed Apr 14, 3:05pm

Wed Apr 14, 2:04pm

Wed Apr 14, 1:05pm

Wed Apr 14, 12:04pm

Wed Apr 14, 11:04am

Wed Apr 14, 10:04am

Wed Apr 14, 9:04am

Wed Apr 14, 8:04am

Wed Apr 14, 7:04am

Wed Apr 14, 6:04am

Wed Apr 14, 5:04am

Wed Apr 14, 4:04am

Wed Apr 14, 3:04am

Wed Apr 14, 2:04am

Wed Apr 14, 1:04am

Wed Apr 14, 12:04am

Tue Apr 13, 11:04pm

Tue Apr 13, 10:05pm

Tue Apr 13, 9:05pm

Tue Apr 13, 8:05pm

Tue Apr 13, 7:04pm

Tue Apr 13, 6:04pm

Tue Apr 13, 5:05pm

Tue Apr 13, 4:04pm

Tue Apr 13, 3:04pm

Tue Apr 13, 2:05pm

Tue Apr 13, 1:04pm

Tue Apr 13, 12:05pm

Tue Apr 13, 11:05am

Tue Apr 13, 10:04am

Tue Apr 13, 9:04am

Tue Apr 13, 8:04am

Tue Apr 13, 7:04am

Tue Apr 13, 6:04am

Tue Apr 13, 5:04am

Tue Apr 13, 4:04am

Tue Apr 13, 3:04am

Tue Apr 13, 2:04am

Tue Apr 13, 1:04am

Tue Apr 13, 12:05am

Mon Apr 12, 11:04pm

Mon Apr 12, 10:04pm

Mon Apr 12, 9:04pm

Mon Apr 12, 8:04pm

Mon Apr 12, 7:05pm

Mon Apr 12, 6:04pm

Mon Apr 12, 5:04pm

Mon Apr 12, 4:04pm

Mon Apr 12, 3:05pm

Mon Apr 12, 2:04pm

Mon Apr 12, 1:05pm

Mon Apr 12, 12:04pm

Mon Apr 12, 11:04am

Mon Apr 12, 10:04am

Mon Apr 12, 9:04am

Mon Apr 12, 8:04am

Mon Apr 12, 7:04am

Mon Apr 12, 6:04am

Mon Apr 12, 5:04am

Mon Apr 12, 3:04am

Mon Apr 12, 2:04am

Mon Apr 12, 1:05am

Mon Apr 12, 12:04am

Sun Apr 11, 11:04pm

Sun Apr 11, 10:04pm

Sun Apr 11, 9:04pm

Sun Apr 11, 8:04pm

Sun Apr 11, 7:04pm

Sun Apr 11, 6:05pm

Sun Apr 11, 5:05pm

Sun Apr 11, 4:04pm

Sun Apr 11, 3:05pm

Sun Apr 11, 2:05pm

Sun Apr 11, 1:05pm

Sun Apr 11, 12:04pm

Sun Apr 11, 11:05am

Sun Apr 11, 10:05am

Sun Apr 11, 9:04am

Sun Apr 11, 8:04am

Sun Apr 11, 7:04am

Sun Apr 11, 6:04am

Sun Apr 11, 5:04am

Sun Apr 11, 4:04am

Sun Apr 11, 3:04am

Sun Apr 11, 2:04am

Sun Apr 11, 1:05am

Sun Apr 11, 12:04am

Sat Apr 10, 11:05pm

Sat Apr 10, 10:04pm

Sat Apr 10, 9:04pm

Sat Apr 10, 8:04pm

Sat Apr 10, 7:05pm

Sat Apr 10, 6:04pm

Sat Apr 10, 5:04pm

Sat Apr 10, 4:04pm

Sat Apr 10, 3:04pm

Sat Apr 10, 2:05pm

Sat Apr 10, 1:04pm

Sat Apr 10, 12:04pm

Sat Apr 10, 11:04am

Sat Apr 10, 10:04am

Sat Apr 10, 9:04am

Sat Apr 10, 8:04am

Sat Apr 10, 7:04am

Sat Apr 10, 6:04am

Sat Apr 10, 5:04am

Sat Apr 10, 4:04am

Sat Apr 10, 3:04am

Sat Apr 10, 2:04am

Sat Apr 10, 1:05am

Sat Apr 10, 12:04am

Fri Apr 9, 11:04pm

Fri Apr 9, 10:05pm

Fri Apr 9, 9:04pm

Fri Apr 9, 8:05pm

Fri Apr 9, 7:05pm

Fri Apr 9, 6:04pm

Fri Apr 9, 5:04pm

Fri Apr 9, 4:05pm

Fri Apr 9, 3:05pm

Fri Apr 9, 2:04pm

Fri Apr 9, 1:04pm

Fri Apr 9, 12:04pm

Fri Apr 9, 11:05am

Fri Apr 9, 10:04am

Meta data:

ID: b4e2a7fe-000b-4a29-af44-ebe65c2dccaf
Link: https://api.weather.gov/products/b4e2a7fe-000b-4a29-af44-ebe65c2dccaf